Location: Poughquag
(41.6090°N, 73.6820°W)
Time: 04:31:32
(UTC-05:00)

NOAA 15 - Visible Passes

Search period start: 28 November 2023 00:00
Search period end: 08 December 2023 00:00
Orbit: 796 x 811 km, 98.6° (Epoch: 27 November)

Date Brightness Start Highest point End Pass type
(mag) Time Alt. Az. Time Alt. Az. Time Alt. Az.
28 Nov 7.8 06:13:05 10° ENE 06:14:50 12° E 06:16:35 10° ESE visible
28 Nov 5.8 17:31:58 10° ESE 17:35:50 21° ENE 17:39:41 10° NNE visible
28 Nov 5.2 19:10:00 10° S 19:15:10 54° W 19:20:22 10° NNW visible
29 Nov 6.2 17:08:23 10° E 17:10:36 13° ENE 17:12:50 10° NNE visible
29 Nov 4.5 18:44:16 10° SSE 18:49:34 89° E 18:54:54 10° NNW visible
29 Nov 7.6 20:28:43 10° WSW 20:30:00 11° W 20:31:17 10° WNW visible
30 Nov 4.6 18:18:56 10° SSE 18:24:04 53° ENE 18:29:12 10° N visible
30 Nov 6.9 20:00:21 10° SW 20:04:06 19° W 20:07:53 10° NW visible
01 Dec 5.2 17:54:01 10° SE 17:58:39 32° ENE 18:03:18 10° N visible
01 Dec 6.1 19:33:35 10° SSW 19:38:20 33° W 19:43:06 10° NNW visible
02 Dec 7.9 06:10:59 10° ENE 06:12:17 11° E 06:13:33 10° ESE visible
02 Dec 5.8 17:29:36 10° ESE 17:33:20 20° ENE 17:37:04 10° NNE visible
02 Dec 5.1 19:07:26 10° S 19:12:38 57° W 19:17:51 10° NNW visible
03 Dec 6.3 17:06:10 10° E 17:08:07 12° ENE 17:10:05 10° NE visible
03 Dec 4.4 18:41:44 10° SSE 18:47:02 85° ENE 18:52:22 10° NNW visible
03 Dec 7.5 20:25:42 10° WSW 20:27:26 11° W 20:29:10 10° WNW visible
04 Dec 4.7 18:16:27 10° SE 18:21:32 50° ENE 18:26:39 10° N visible
04 Dec 6.9 19:57:41 10° SW 20:01:34 20° W 20:05:27 10° NW visible
05 Dec 7.4 06:31:59 10° NE 06:35:36 19° E 06:39:11 10° SE visible
05 Dec 5.3 17:51:34 10° SE 17:56:08 30° ENE 18:00:42 10° N visible
05 Dec 6.0 19:30:59 10° SSW 19:35:46 35° W 19:40:36 10° NNW visible
06 Dec 8.0 06:09:17 10° E 06:09:42 10° E 06:10:05 10° E visible
06 Dec 5.8 17:27:13 10° ESE 17:30:49 19° ENE 17:34:26 10° NNE visible
06 Dec 5.0 19:04:53 10° S 19:10:05 60° W 19:15:20 10° NNW visible
07 Dec 6.3 17:03:59 10° ENE 17:05:37 11° ENE 17:07:15 10° NE visible
07 Dec 4.4 18:39:13 10° SSE 18:44:30 81° ENE 18:49:49 10° NNW visible
07 Dec 7.5 20:22:47 10° WSW 20:24:52 12° W 20:26:56 10° WNW visible
